When you browse on this site, cookies collect data to enhance your experience and personalize the content and advertising you see.
Visit our Privacy Policy to learn more. By continuing to use the site, you agree to this use of cookies and data.
  • In United Kingdom
  • List of Countries
  • For 7 days
  • Water Temperature
  • Satellite Maps
  • Weather Map
  • Weather Widgets
  • user-avatar
    Login

    Hourly Weather Birkenhead

    Today, 23 July, Tuesday

    Time Temperature Precipitation Wind Pressure Humidity
    00:00 +18°C° 0 mm 3 mps 763 mmHg 89%
    01:00 +17°C° 0 mm 3 mps 762 mmHg 89%
    02:00 +17°C° 0 mm 3 mps 762 mmHg 90%
    03:00 +17°C° 0 mm 3 mps 762 mmHg 90%
    04:00 +17°C° 0 mm 3 mps 762 mmHg 88%
    05:00 +17°C° 0 mm 3 mps 762 mmHg 87%
    06:00 +18°C° 0 mm 2 mps 762 mmHg 85%
    07:00 +20°C° 0 mm 3 mps 762 mmHg 79%
    08:00 +21°C° 0 mm 3 mps 762 mmHg 72%
    09:00 +24°C° 0 mm 3 mps 762 mmHg 66%
    10:00 +25°C° 0 mm 3 mps 761 mmHg 63%
    11:00 +27°C° 0 mm 3 mps 761 mmHg 61%
    12:00 +28°C° 0 mm 3 mps 761 mmHg 58%
    13:00 +28°C° 0 mm 3 mps 760 mmHg 56%
    14:00 +29°C° 0 mm 3 mps 760 mmHg 55%
    15:00 +29°C° 0 mm 3 mps 759 mmHg 53%
    16:00 +29°C° 0 mm 3 mps 759 mmHg 57%
    17:00 +29°C° 0 mm 3 mps 758 mmHg 60%
    18:00 +28°C° 0 mm 3 mps 758 mmHg 63%
    19:00 +27°C° 0 mm 3 mps 757 mmHg 68%
    20:00 +26°C° 0 mm 4 mps 757 mmHg 73%
    21:00 +25°C° 0 mm 4 mps 757 mmHg 78%
    22:00 +25°C° 0.3 mm 5 mps 757 mmHg 79%
    23:00 +23°C° 0.3 mm 5 mps 756 mmHg 80%

    Tomorrow, 24 July, Wednesday

    Time Temperature Precipitation Wind Pressure Humidity
    00:00 +23°C° 0.3 mm 6 mps 756 mmHg 81%
    01:00 +22°C° 1.4 mm 6 mps 756 mmHg 85%
    02:00 +22°C° 1.4 mm 5 mps 755 mmHg 88%
    03:00 +21°C° 1.4 mm 4 mps 755 mmHg 92%
    04:00 +21°C° 0.2 mm 3 mps 755 mmHg 91%
    05:00 +21°C° 0.2 mm 3 mps 755 mmHg 91%
    06:00 +21°C° 0.2 mm 2 mps 755 mmHg 90%
    07:00 +23°C° 0 mm 2 mps 755 mmHg 84%
    08:00 +24°C° 0 mm 2 mps 755 mmHg 78%
    09:00 +25°C° 0 mm 2 mps 755 mmHg 72%
    10:00 +26°C° 0 mm 2 mps 755 mmHg 67%
    11:00 +26°C° 0 mm 2 mps 756 mmHg 61%
    12:00 +27°C° 0 mm 2 mps 756 mmHg 56%
    13:00 +27°C° 0 mm 2 mps 756 mmHg 55%
    14:00 +27°C° 0 mm 2 mps 756 mmHg 55%
    15:00 +27°C° 0 mm 2 mps 756 mmHg 54%
    16:00 +27°C° 0 mm 2 mps 756 mmHg 58%
    17:00 +26°C° 0 mm 2 mps 756 mmHg 62%
    18:00 +25°C° 0 mm 2 mps 756 mmHg 65%
    19:00 +24°C° 0 mm 2 mps 756 mmHg 66%
    20:00 +23°C° 0 mm 2 mps 757 mmHg 68%
    21:00 +22°C° 0 mm 1 mps 757 mmHg 69%
    22:00 +21°C° 0 mm 2 mps 757 mmHg 72%
    23:00 +20°C° 0 mm 2 mps 757 mmHg 74%

    Day after tomorrow, 25 July, Thursday

    Time Temperature Precipitation Wind Pressure Humidity
    00:00 +20°C° 0 mm 2 mps 756 mmHg 76%
    01:00 +20°C° 0 mm 2 mps 756 mmHg 81%
    02:00 +20°C° 0 mm 2 mps 756 mmHg 86%
    03:00 +19°C° 0 mm 2 mps 756 mmHg 90%
    04:00 +20°C° 0 mm 3 mps 756 mmHg 88%
    05:00 +20°C° 0 mm 3 mps 756 mmHg 86%
    06:00 +20°C° 0 mm 4 mps 756 mmHg 85%
    07:00 +21°C° 0 mm 4 mps 755 mmHg 77%
    08:00 +23°C° 0 mm 5 mps 755 mmHg 70%
    09:00 +25°C° 0 mm 5 mps 755 mmHg 63%
    10:00 +26°C° 0 mm 5 mps 755 mmHg 62%
    11:00 +28°C° 0 mm 5 mps 754 mmHg 61%
    12:00 +29°C° 0 mm 5 mps 754 mmHg 60%
    13:00 +29°C° 0.1 mm 5 mps 754 mmHg 61%
    14:00 +28°C° 0.1 mm 5 mps 754 mmHg 63%
    15:00 +28°C° 0.1 mm 5 mps 754 mmHg 65%
    16:00 +28°C° 0 mm 5 mps 753 mmHg 65%
    17:00 +29°C° 0 mm 4 mps 753 mmHg 65%
    18:00 +29°C° 0 mm 4 mps 753 mmHg 66%
    19:00 +27°C° 0 mm 3 mps 754 mmHg 70%
    20:00 +26°C° 0 mm 3 mps 754 mmHg 74%
    21:00 +24°C° 0 mm 2 mps 754 mmHg 78%
    22:00 +23°C° 0 mm 2 mps 755 mmHg 79%
    23:00 +21°C° 0 mm 2 mps 755 mmHg 80%

    26 July, Friday

    Time Temperature Precipitation Wind Pressure Humidity
    00:00 +21°C° 0 mm 3 mps 755 mmHg 80%
    01:00 +20°C° 0 mm 3 mps 755 mmHg 82%
    02:00 +19°C° 0 mm 3 mps 755 mmHg 84%
    03:00 +19°C° 0 mm 3 mps 755 mmHg 85%
    04:00 +19°C° 0 mm 3 mps 755 mmHg 84%
    05:00 +19°C° 0 mm 3 mps 755 mmHg 83%
    06:00 +19°C° 0 mm 3 mps 755 mmHg 81%
    07:00 +20°C° 0 mm 3 mps 756 mmHg 76%
    08:00 +21°C° 0 mm 3 mps 756 mmHg 71%
    09:00 +23°C° 0 mm 2 mps 756 mmHg 66%
    10:00 +24°C° 0 mm 3 mps 756 mmHg 64%
    11:00 +24°C° 0 mm 3 mps 756 mmHg 62%
    12:00 +25°C° 0 mm 4 mps 757 mmHg 60%
    13:00 +25°C° 0 mm 4 mps 757 mmHg 60%
    14:00 +26°C° 0 mm 4 mps 757 mmHg 60%
    15:00 +26°C° 0 mm 4 mps 757 mmHg 60%
    16:00 +25°C° 0 mm 3 mps 757 mmHg 63%
    17:00 +24°C° 0 mm 2 mps 757 mmHg 66%
    18:00 +24°C° 0 mm 2 mps 756 mmHg 69%
    19:00 +23°C° 0 mm 2 mps 757 mmHg 72%
    20:00 +22°C° 0 mm 1 mps 757 mmHg 75%
    21:00 +22°C° 0 mm 1 mps 757 mmHg 78%
    22:00 +21°C° 0 mm 1 mps 757 mmHg 79%
    23:00 +21°C° 0 mm 1 mps 757 mmHg 80%

    27 July, Saturday

    Time Temperature Precipitation Wind Pressure Humidity
    00:00 +19°C° 0 mm 2 mps 757 mmHg 81%
    01:00 +19°C° 0 mm 2 mps 756 mmHg 82%
    02:00 +19°C° 0 mm 2 mps 756 mmHg 83%
    03:00 +18°C° 0 mm 3 mps 756 mmHg 84%
    04:00 +18°C° 0 mm 3 mps 756 mmHg 84%
    05:00 +18°C° 0 mm 3 mps 756 mmHg 83%
    06:00 +18°C° 0 mm 3 mps 756 mmHg 82%
    07:00 +18°C° 0.3 mm 3 mps 756 mmHg 83%
    08:00 +18°C° 0.3 mm 3 mps 755 mmHg 84%
    09:00 +18°C° 0.3 mm 3 mps 755 mmHg 85%
    10:00 +18°C° 0.3 mm 4 mps 755 mmHg 85%
    11:00 +18°C° 0.3 mm 4 mps 755 mmHg 84%
    12:00 +18°C° 0.3 mm 4 mps 755 mmHg 84%
    13:00 +18°C° 2.2 mm 4 mps 754 mmHg 87%
    14:00 +17°C° 2.2 mm 4 mps 754 mmHg 90%
    15:00 +17°C° 2.2 mm 4 mps 754 mmHg 94%
    16:00 +17°C° 2.7 mm 4 mps 754 mmHg 94%
    17:00 +16°C° 2.7 mm 5 mps 753 mmHg 94%
    18:00 +16°C° 2.7 mm 5 mps 753 mmHg 95%
    19:00 +16°C° 2.9 mm 5 mps 753 mmHg 94%
    20:00 +15°C° 2.9 mm 5 mps 753 mmHg 94%
    21:00 +15°C° 2.9 mm 6 mps 753 mmHg 94%
    22:00 +15°C° 2 mm 6 mps 753 mmHg 94%
    23:00 +15°C° 2 mm 6 mps 753 mmHg 94%

    28 July, Sunday

    Time Temperature Precipitation Wind Pressure Humidity
    00:00 +15°C° 2 mm 6 mps 753 mmHg 94%
    01:00 +15°C° 0.4 mm 5 mps 753 mmHg 93%
    02:00 +15°C° 0.4 mm 5 mps 753 mmHg 91%
    03:00 +15°C° 0.4 mm 4 mps 752 mmHg 90%
    04:00 +14°C° 0 mm 5 mps 753 mmHg 90%
    05:00 +14°C° 0 mm 5 mps 753 mmHg 89%
    06:00 +14°C° 0 mm 5 mps 753 mmHg 89%
    07:00 +15°C° 0 mm 5 mps 753 mmHg 88%
    08:00 +15°C° 0 mm 5 mps 754 mmHg 87%
    09:00 +16°C° 0 mm 5 mps 754 mmHg 87%
    10:00 +16°C° 0.1 mm 5 mps 754 mmHg 86%
    11:00 +16°C° 0.1 mm 5 mps 755 mmHg 85%
    12:00 +17°C° 0.1 mm 4 mps 755 mmHg 84%
    13:00 +17°C° 0.1 mm 5 mps 755 mmHg 82%
    14:00 +17°C° 0.1 mm 5 mps 755 mmHg 79%
    15:00 +19°C° 0.1 mm 5 mps 755 mmHg 76%
    16:00 +19°C° 0 mm 5 mps 756 mmHg 76%
    17:00 +18°C° 0 mm 4 mps 756 mmHg 76%
    18:00 +18°C° 0 mm 4 mps 756 mmHg 76%
    19:00 +17°C° 0 mm 4 mps 757 mmHg 80%
    20:00 +16°C° 0 mm 3 mps 757 mmHg 84%
    21:00 +16°C° 0 mm 3 mps 758 mmHg 88%
    22:00 +16°C° 0 mm 3 mps 758 mmHg 87%
    23:00 +15°C° 0 mm 4 mps 759 mmHg 87%
    Show more